OPS 4682 DEB, 1389

Orbit data source: Space-Track

OPS 4682 DEB, 1389 is space debris in LEO originally from a launch on Sat, 03 Apr 1965 UTC launched from the Air Force Western Test Range (AFWTR). Debris objects in space refer to the collection of defunct objects orbiting the Earth. Examples of debris include non-operational satellites, rocket bodies, and fragments generated from explosions, collisions, or faulty payload assembly.

Loading next visibility...
Identifier
1389, 1965-027D
Orbit
LEO
Country
Flag of USUS
Related business
Manufacturer
Unknown
Mission
Spacecraft
Bus & Motor
Unknown
Mass
7 kg wet, 7 kg dry
Launch date (UTC)
1965-04-03 (61 years ago)
Launch vehicle
Unknown
Launch site
Air Force Western Test Range (AFWTR)
Object type
Payload
Rocket body
Debris
Shape & HBR
Unknown
Radar Cross Section
Medium (>0.1 m² and <1 m²)

Expand to show TLE details & history
Last TLE update: 7 hours ago

TLE from 7 hours ago
0 OPS 4682 DEB
1  1389U 65027D   26130.49962045  .00000482  00000-0  12710-2 0  9999
2  1389  89.8675 220.1684 0022374 230.1110 141.1965 13.14730861905730
Epoch: 2026-05-10T11:59Z
TLE epoch observation values (Epoch: 2026-05-10T11:59:27.206Z)
Latitude
11.42164°
Longitude
172.02986°
Altitude
1,220.301 km
Speed
7.239 km/s
True Right ascension
14h 40m 46s
True Declination
11° 21' 33"
Sunlit
Object was in full shadow at epoch
Visualization orbit readout
Latitude
Unknown
Longitude
Unknown
Altitude
Unknown
Speed
Unknown
Apparent Right ascension
Unknown
Apparent Declination
Unknown
Sunlit
N/A
Visualization observer readout
Local Sidereal Time
03:40:36
Azimuth
Unknown
Elevation
Unknown
Doppler factor
Unknown
Orbital elements
Apogee altitude
1,218.975 km
Perigee altitude
1,185.055 km
Semi-major axis
7,580.152 km
Eccentricity
0.00224
Inclination
89.8675°
RAAN
220.1684°
Arg. of periapsis
230.111°
True anomaly
141.35682°
Mean anomaly
141.1965°
Eccentric anomaly
141.27669°
Mean motion
3.28872 °/min
Orbital period
109.47 mins
BSTAR
0.001271
Loading maneuver chart data...
Computing Atmospheric mass density...
Loading historical data...
Loading historical data...
Loading historical data...
Loading historical data...
Loading historical data...
Loading historical data...
Loading historical data...

Documentation

Showing up to 5 results
|